Francistown, Botswana

10:46 PM CAT on September 28, 2016 (GMT +0200)
Francistown

Weather History for FBFT - February, 2014

Change the Weather History Date:

Friday, February 7, 2014

  Actual Average Record
Temperature  
Mean Temperature 75 °F -  
Max Temperature 82 °F 84 °F 95 °F (2015)
Min Temperature 68 °F 66 °F 60 °F (2005)
Cooling Degree Days 10    
Growing Degree Days 25 (Base 50)    
Moisture  
Dew Point 69 °F    
Average Humidity 87    
Maximum Humidity 100    
Minimum Humidity 66    
Precipitation  
Precipitation 0.00 in - - ()
Sea Level Pressure  
Sea Level Pressure 29.87 in    
Wind  
Wind Speed 8 mph ()    
Max Wind Speed 17 mph    
Max Gust Speed -    
Visibility 6.2 miles    
Events Rain , Thunderstorm    
Averages and records for this station are not official NWS values.
T = Trace of Precipitation, MM = Missing Value Source: Averaged Metar Reports

Daily Weather History Graph

Daily Weather History Graph

Search for Another Location

Airport or City:

Trip Planner

Search our weather history database for the weather conditions in past years. The results will help you decide how hot, cold, wet, or windy it might be!

Date:

Astronomy

Feb. 07, 2014 Rise Set
Actual Time 5:56 AM CAT 6:52 PM CAT
Civil Twilight 5:32 AM CAT 7:15 PM CAT
Nautical Twilight 5:05 AM CAT 7:42 PM CAT
Astronomical Twilight 4:37 AM CAT 8:10 PM CAT
Moon 1:05 PM CAT (2/7) No Moon Set
Length of Visible Light 13h 42m
Length of Day
12h 55m
First Quarter, 56% of the Moon is Illuminated
Feb 7
First Quarter
Feb 15
Full
Feb 22
Last Quarter
Mar 1
New
Mar 8
First Quarter

Hourly Weather History & Observations

Time (CAT) Temp. Heat Index Dew Point Humidity Pressure Visibility Wind Dir Wind Speed Gust Speed Precip Events Conditions
12:00 AM 73.4 °F - 73.4 °F 100% 29.86 in 6.2 mi SSE 3.5 mph - N/A   Scattered Clouds
1:00 AM 73.4 °F - 71.6 °F 94% 29.86 in 6.2 mi SE 9.2 mph - N/A Thunderstorm Thunderstorm
2:00 AM 71.6 °F - 69.8 °F 94% 29.86 in 6.2 mi SE 6.9 mph - N/A Thunderstorm Thunderstorm
3:00 AM 71.6 °F - 71.6 °F 100% 29.86 in 6.2 mi WSW 8.1 mph - N/A Rain , Thunderstorm Thunderstorms and Rain
4:00 AM 68.0 °F - 68.0 °F 100% 29.89 in 6.2 mi ESE 12.7 mph - N/A Rain , Thunderstorm Heavy Thunderstorms and Rain
5:00 AM 69 °F - 68 °F 96%  in 6 mi ESE 6.9 mph - - Rain , Thunderstorm Thunderstorms and Rain
5:00 AM 68.0 °F - 68.0 °F 100% 29.89 in 6.2 mi ESE 6.9 mph - N/A Rain , Thunderstorm Thunderstorms and Rain
6:00 AM 68.0 °F - 68.0 °F 100% 29.89 in 6.2 mi ENE 16.1 mph - N/A Rain , Thunderstorm Thunderstorms and Rain
7:00 AM 68.0 °F - 68.0 °F 100% 29.89 in 6.2 mi ENE 11.5 mph - N/A Rain , Thunderstorm Light Thunderstorms and Rain
9:00 AM 71.6 °F - 69.8 °F 94% 29.92 in 6.2 mi ENE 6.9 mph - N/A   Mostly Cloudy
10:00 AM 73.4 °F - 68.0 °F 83% 29.89 in 6.2 mi ENE 10.4 mph - N/A   Mostly Cloudy
11:00 AM 76 °F - 69 °F 73%  in 6 mi ESE 6.9 mph - -   Partly Cloudy
11:00 AM 77.0 °F - 69.8 °F 78% 29.89 in 6.2 mi ESE 6.9 mph - N/A   Mostly Cloudy
12:00 PM 78.8 °F - 69.8 °F 74% 29.86 in 6.2 mi ENE 5.8 mph - N/A   Scattered Clouds
1:00 PM 82.4 °F 86.3 °F 69.8 °F 66% 29.86 in 6.2 mi NNE 10.4 mph - N/A   Mostly Cloudy
2:00 PM 80.6 °F 84.6 °F 71.6 °F 74% 29.86 in 6.2 mi ESE 13.8 mph - N/A   Scattered Clouds
3:00 PM 80.6 °F 84.6 °F 71.6 °F 74% 29.83 in 6.2 mi ESE 11.5 mph - N/A   Partly Cloudy
4:00 PM 80.6 °F 83.9 °F 69.8 °F 70% 29.83 in 6.2 mi ESE 12.7 mph - N/A   Partly Cloudy
5:00 PM 78.8 °F - 69.8 °F 74% 29.80 in 6.2 mi ESE 13.8 mph - N/A   Partly Cloudy
6:00 PM 71.6 °F - 66.2 °F 83% 29.83 in 6.2 mi NNE 17.3 mph - N/A Rain Rain
7:00 PM 69.8 °F - 69.8 °F 100% 29.86 in 6.2 mi ESE 3.5 mph - N/A   Partly Cloudy
8:00 PM 73.4 °F - 69.8 °F 88% 29.89 in 6.2 mi SE 4.6 mph - N/A   Scattered Clouds
9:00 PM 71.6 °F - 69.8 °F 94% 29.92 in 6.2 mi SE 6.9 mph - N/A   Scattered Clouds
10:00 PM 71.6 °F - 68.0 °F 88% 29.92 in 6.2 mi ESE 8.1 mph - N/A   Scattered Clouds
11:00 PM 71.6 °F - 68.0 °F 88% 29.92 in 6.2 mi East 8.1 mph - N/A   Scattered Clouds